Location: downtown San Diego
(32.7310°N, 117.1990°W)
Time: 17:57:47
(UTC-07:00)

SPOT 1/Viking Rocket - Pass Details

Date: 19 May 2017
Orbit: 777 x 795 km, 98.6° (Epoch: 26 May)

Event Time Altitude Azimuth Distance (km) Brightness Sun altitude
Exits shadow 21:48:37 38° 83° (E) 1,191 4.2 -22.4°
Maximum altitude 21:49:02 38° 72° (ENE) 1,178 4.2 -22.5°
Drops below altitude 10° 21:53:47 10° 5° (N) 2,345 6.5 -23.2°
Sets 21:56:14 0° 357° (N) 3,274 7.5 -23.6°
